Tracking 27086 objects as of 23-Mar-2023
HD Live streaming from Space Station
objects crossing your sky now

SL-16 DEB

Track SL-16 DEB now!
10-day predictions


NORAD ID: 22477
Int'l Code: 1992-093FS
Perigee: 596.0 km
Apogee: 682.8 km
Inclination: 70.9 °
Period: 97.4 minutes
Semi major axis: 7010 km
RCS: 0.05 m2 (small)
Launch date: December 25, 1992
Source: Commonwealth of Independent States (former USSR) (CIS)
Launch site: TYURATAM MISSILE AND SPACE COMPLEX (TTMTR)

Note: This is SATELLITE DEBRIS
Your satellite tracking list
Your tracking list is empty




NASA's NSSDC Master Catalog

Two Line Element Set (TLE):
1 22477U 92093FS  23080.72913373  .00019323  00000-0  25274-2 0  9993
2 22477  70.8687 212.3560 0061874 180.6381 246.2112 14.79075147600742
Source of the keplerian elements: AFSPC